Terminal Aerodrome Forecast
Issued by NWS

Home | Current Version | Previous Version | Text Only | Print | Product List | Glossary On
Versions: 1 2 3 4 5 6 7 8 9 10 11 12 13 14 15 16 17 18 19 20 21 22 23 24 25
000
FTUS43 KGRR 111414 AAB
TAFLAN
TAF AMD
KLAN 111414Z 1114/1212 14010KT 1 1/2SM -SN BR OVC025
      TEMPO 1114/1116 3/4SM -SN OVC015
     FM111800 18010KT P6SM VCSH OVC012
     FM112200 17010KT 3/4SM -SN BR OVC005
     FM120500 32012G22KT 4SM -SHSN OVC015=

USA.gov is the U.S. government's official web portal to all federal, state and local government web resources and services.